Location: Bailen
(14.1842°N, 120.7958°E)
Time: 17:35:17
(UTC+00:00)

CORIOLIS - Pass Details

Date: 12 January 2026
Orbit: 816 x 836 km, 98.7° (Epoch: 17 February)

Event Time Altitude Azimuth Distance (km) Brightness Sun altitude
Rises 21:59:58 0° 11° (N) 3,374 7.2 -6.4°
Reaches altitude 10° 22:02:20 10° 10° (N) 2,438 6.5 -5.8°
Maximum altitude 22:07:44 84° 283° (WNW) 839 4.2 -4.6°
Drops below altitude 10° 22:13:07 10° 195° (SSW) 2,426 6.7 -3.4°
Sets 22:15:28 0° 195° (SSW) 3,356 7.4 -2.9°
